Regional Weather Roundup
Issued by NWS

Home | Current Version | Previous Version | Graphics & Text | Print | Product List | Glossary Off
Versions: 1 2 3 4 5 6 7 8 9 10 11 12 13 14 15 16 17 18 19 20 21 22 23 24 25 26 27 28 29 30 31 32 33 34 35 36 37 38 39 40 41 42 43 44 45 46 47 48 49 50

000
ASUS43 KDTX 011510
RWRMI
MICHIGAN HOURLY REGIONAL WEATHER ROUNDUP
NATIONAL WEATHER SERVICE DETROIT/PONTIAC MI
1100 AM EDT FRI AUG 01 2014

NOTE: "FAIR" INDICATES FEW OR NO CLOUDS BELOW 12,000 FEET WITH NO
SIGNIFICANT WEATHER AND/OR OBSTRUCTION TO VISIBILITY.

MIZ047>049-052>055-059>063-066>070-074>076-081>083-011600-
SOUTHEAST LOWER MICHIGAN

CITY           SKY/WX    TMP DP  RH WIND       PRES   REMARKS
ADRIAN         SUNNY     76  62  62 VRB3      30.12S
ALMA           SUNNY     72  64  74 SW5       30.09S
ANN ARBOR      SUNNY     75  62  64 VRB3      30.11S
BAD AXE        MOSUNNY   73  64  74 CALM      30.09S
DETROIT CITY   SUNNY     79  61  53 SW7       30.10S
DETROIT        SUNNY     76  63  64 CALM      30.11S
FLINT          SUNNY     75  61  61 VRB5      30.10R
GROSSE ILE     SUNNY     73  66  78 S5        30.10R
HILLSDALE      SUNNY     77  63  63 W6        30.12S
HOWELL         SUNNY     75  62  64 SW5       30.11R

CITY           SKY/WX    TMP DP  RH WIND       PRES   REMARKS
JACKSON        SUNNY     76  61  59 W6        30.12R
LAMBERTVILLE   SUNNY     77  63  61 W3        30.12S
LANSING        SUNNY     74  61  63 W6        30.10S
LAPEER         NOT AVBL
MASON          SUNNY     75  62  63 SW6       30.11R
MONROE         SUNNY     75  64  69 W5        30.09S
MT. CLEMENS    SUNNY     76  62  61 CALM      30.09S
PONTIAC        SUNNY     75  60  59 W6        30.10S
PORT HOPE        N/A     72  61  68 VRB3      30.06S
PORT HURON     SUNNY     73  66  78 S5        30.10S
TRI CITIES     PTSUNNY   74  63  68 W5        30.09R
YPSILANTI      SUNNY     80  62  54 VRB3      30.11S
$$
MIZ043>046-050>051-056>058-064>065-071>073-077>080-011600-
SOUTHWEST LOWER MICHIGAN

CITY           SKY/WX    TMP DP  RH WIND       PRES   REMARKS
BATTLE CREEK   SUNNY     76  62  62 VRB5      30.12R
BENTON HARBOR  SUNNY     74  61  63 W5        30.10S
BIG RAPIDS     SUNNY     74  61  65 CALM      30.08S
COLDWATER      SUNNY     76  63  64 SW3       30.12S
HOLLAND        SUNNY     76  62  62 W5        30.10R
GRAND RAPIDS   MOSUNNY   77  63  61 SW6       30.10R
KALAMAZOO      SUNNY     77  62  59 SW7       30.11S
MARSHALL       SUNNY     75  62  63 W8        30.11R
MUSKEGON       MOSUNNY   75  61  61 NW3       30.09R
$$
MIZ016>042-011600-
NORTHERN LOWER MICHIGAN

CITY           SKY/WX    TMP DP  RH WIND       PRES   REMARKS
ALPENA         SUNNY     71  59  65 NW3       30.07S
BEAVER ISLAND  SUNNY     74  54  50 CALM      30.06S
BELLAIRE       CLOUDY    71  56  61 CALM      30.06S
CADILLAC       SUNNY     73  62  70 CALM      30.08R
CHARLEVOIX     MOSUNNY   71  62  73 CALM      30.09R
FRANKFORT      SUNNY     73  61  67 CALM      30.07R
GAYLORD        SUNNY     72  48  42 VRB3      30.08S
GRAYLING       SUNNY     74  61  63 W3        30.09R
HARBOR SPRINGS SUNNY     69  58  68 SW5       30.07S
HOUGHTON LAKE  SUNNY     70  60  70 CALM      30.09R
MANISTEE       SUNNY     70  63  78 SE5       30.08R
OSCODA         MOSUNNY   73  60  64 SE3       30.07R
PELLSTON       SUNNY     72  52  49 S5        30.07S
TRAVERSE CITY  SUNNY     72  58  61 CALM      30.06R
$$
MIZ007>008-015-011600-
EASTERN UPPER MICHIGAN

CITY           SKY/WX    TMP DP  RH WIND       PRES   REMARKS
KINROSS        SUNNY     68  55  64 NW5       30.07R
MACKINAC ISLAN SUNNY     63  60  91 CALM      30.06S
NEWBERRY       SUNNY     69  53  57 W6        30.06S
S. S. MARIE    SUNNY     69  53  56 W7        30.06R
$$
MIZ004>006-011>014-085-011600-
CENTRAL UPPER MICHIGAN

CITY           SKY/WX    TMP DP  RH WIND       PRES   REMARKS
MANISTIQUE     SUNNY     71  53  54 CALM      30.05S
ESCANABA       MOSUNNY   70  52  52 SE6       30.06R
MENOMINEE      SUNNY     70  59  68 SE5       30.04S
SAWYER-GWINN   SUNNY     66  55  68 NE6       30.07R
$$
MIZ001>003-009>011-084-011600-
WESTERN UPPER MICHIGAN

CITY           SKY/WX    TMP DP  RH WIND       PRES   REMARKS
IRON MOUNTAIN  SUNNY     68  56  65 N5        30.05S
HOUGHTON       MOSUNNY   67  51  56 SE3       30.06S
COPPER HARBOR    N/A     60  53  77 E6        30.07S
$$

ABBREVIATIONS USED IN REMARKS
   TC - TEMPERATURE IN CELSIUS
  WCI - WIND CHILL INDEX
   HX - HEAT INDEX
  VSB - VISIBILITY



USA.gov is the U.S. government's official web portal to all federal, state and local government web resources and services.